FFT1816 KDEN-KAUS

Flight info

Callsign FFT1816
Flight time 1h 38m
Altitude 37000
Route SLEEK2 SLEEK PNH J17 ABI DILLO LAIKS4
Aircraft A320/M-SDE3FGHIRWY/LB1

Departure

Time 2026-05-06 02:38
Airport Denver International Airport (KDEN)

Arrival

Time 2026-05-06 04:17
Airport Austin Bergstrom International Airport (KAUS)
Time Latitude Longitude Altitude Speed Heading
2026-05-06 01:55 39.85333 -104.66895 5232 ft 0 kts
2026-05-06 02:29 39.85314 -104.66895 5436 ft 4 kts 360°
2026-05-06 02:29 39.85293 -104.66895 5380 ft 3 kts
2026-05-06 02:29 39.85267 -104.66895 5381 ft 2 kts
2026-05-06 02:29 39.85265 -104.66895 5381 ft 0 kts
2026-05-06 02:32 39.85266 -104.66896 5381 ft 0 kts 358°
2026-05-06 02:33 39.85266 -104.66905 5382 ft 5 kts 281°
2026-05-06 02:33 39.85261 -104.66941 5383 ft 5 kts 258°
2026-05-06 02:33 39.85235 -104.67144 5383 ft 22 kts 270°
2026-05-06 02:34 39.85235 -104.67320 5383 ft 16 kts 270°
2026-05-06 02:34 39.85236 -104.67444 5430 ft 13 kts 271°
2026-05-06 02:34 39.85238 -104.67620 5383 ft 26 kts 271°
2026-05-06 02:34 39.85239 -104.67842 5383 ft 23 kts 270°
2026-05-06 02:35 39.85241 -104.68036 5383 ft 20 kts 271°
2026-05-06 02:35 39.85233 -104.68216 5383 ft 25 kts 257°
2026-05-06 02:35 39.85206 -104.68467 5379 ft 27 kts 270°
2026-05-06 02:35 39.85202 -104.68714 5366 ft 28 kts 268°
2026-05-06 02:36 39.85198 -104.68972 5357 ft 29 kts 268°
2026-05-06 02:36 39.85197 -104.69243 5348 ft 31 kts 272°
2026-05-06 02:36 39.85202 -104.69504 5340 ft 24 kts 270°
2026-05-06 02:36 39.85253 -104.69653 5339 ft 17 kts 346°
2026-05-06 02:37 39.85300 -104.69656 5337 ft 0 kts 359°
2026-05-06 02:37 39.85309 -104.69657 5337 ft 7 kts 359°
2026-05-06 02:37 39.85601 -104.69653 5339 ft 75 kts
2026-05-06 02:38 39.86315 -104.69643 5333 ft 129 kts
2026-05-06 02:38 39.87359 -104.69630 5385 ft 167 kts
2026-05-06 02:38 39.88532 -104.69627 5995 ft 175 kts
2026-05-06 02:38 39.89736 -104.69509 6625 ft 171 kts 30°
2026-05-06 02:39 39.90619 -104.68545 7061 ft 173 kts 70°
2026-05-06 02:39 39.90799 -104.66999 7298 ft 185 kts 101°
2026-05-06 02:39 39.90427 -104.65302 7455 ft 206 kts 110°
2026-05-06 02:39 39.89892 -104.63464 7638 ft 227 kts 112°
2026-05-06 02:40 39.89300 -104.61474 7927 ft 246 kts 112°
2026-05-06 02:40 39.88662 -104.59292 8203 ft 269 kts 112°
2026-05-06 02:40 39.87983 -104.56957 8736 ft 282 kts 113°
2026-05-06 02:40 39.87306 -104.54504 9459 ft 293 kts 112°
2026-05-06 02:41 39.86615 -104.51966 10067 ft 302 kts 111°
2026-05-06 02:41 39.85858 -104.49307 10338 ft 324 kts 115°
2026-05-06 02:41 39.84605 -104.46792 10520 ft 341 kts 139°
2026-05-06 02:41 39.82624 -104.45089 10936 ft 345 kts 162°
2026-05-06 02:42 39.80281 -104.44451 11510 ft 346 kts 177°
2026-05-06 02:42 39.77862 -104.44129 12152 ft 351 kts 178°
2026-05-06 02:42 39.75409 -104.43823 12804 ft 356 kts 178°
2026-05-06 02:42 39.72926 -104.43523 13431 ft 361 kts 179°
2026-05-06 02:43 39.70409 -104.43221 14018 ft 366 kts 179°
2026-05-06 02:43 39.67862 -104.42911 14599 ft 369 kts 178°
2026-05-06 02:43 39.65293 -104.42591 15199 ft 372 kts 178°
2026-05-06 02:43 39.62704 -104.42266 15801 ft 375 kts 178°
2026-05-06 02:44 39.60098 -104.41939 16383 ft 378 kts 178°
2026-05-06 02:44 39.57506 -104.41614 16956 ft 380 kts 178°
2026-05-06 02:44 39.54831 -104.41280 17536 ft 382 kts 178°
2026-05-06 02:44 39.52207 -104.40952 18113 ft 384 kts 178°
2026-05-06 02:45 39.49505 -104.40615 18612 ft 387 kts 178°
2026-05-06 02:45 39.46848 -104.40284 19075 ft 389 kts 178°
2026-05-06 02:45 39.44143 -104.39945 19546 ft 392 kts 178°
2026-05-06 02:45 39.41421 -104.39602 20020 ft 395 kts 178°
2026-05-06 02:46 39.38675 -104.39259 20491 ft 397 kts 178°
2026-05-06 02:46 39.35914 -104.38915 20952 ft 400 kts 178°
2026-05-06 02:46 39.33137 -104.38572 21432 ft 402 kts 179°
2026-05-06 02:46 39.30346 -104.38227 21897 ft 404 kts 179°
2026-05-06 02:47 39.27537 -104.37878 22349 ft 407 kts 179°
2026-05-06 02:47 39.24714 -104.37528 22785 ft 409 kts 179°
2026-05-06 02:47 39.21870 -104.37177 23235 ft 412 kts 179°
2026-05-06 02:47 39.18999 -104.36822 23643 ft 415 kts 179°
2026-05-06 02:48 39.16121 -104.36464 24050 ft 416 kts 180°
2026-05-06 02:48 39.13240 -104.35904 24443 ft 422 kts 173°
2026-05-06 02:48 39.10381 -104.34991 24849 ft 423 kts 173°
2026-05-06 02:48 39.07555 -104.34085 25246 ft 424 kts 173°
2026-05-06 02:49 39.04692 -104.33168 25642 ft 424 kts 174°
2026-05-06 02:49 39.01819 -104.32250 26021 ft 425 kts 174°
2026-05-06 02:49 38.98950 -104.31338 26410 ft 426 kts 174°
2026-05-06 02:49 38.96070 -104.30420 26787 ft 427 kts 175°
2026-05-06 02:50 38.93186 -104.29501 27170 ft 427 kts 175°
2026-05-06 02:50 38.90294 -104.28579 27536 ft 427 kts 175°
2026-05-06 02:50 38.87402 -104.27657 27913 ft 428 kts 176°
2026-05-06 02:50 38.84511 -104.26735 28277 ft 428 kts 176°
2026-05-06 02:51 38.81620 -104.25809 28613 ft 429 kts 176°
2026-05-06 02:51 38.79699 -104.25194 28825 ft 429 kts 176°
2026-05-06 02:51 38.76799 -104.24268 29135 ft 430 kts 176°
2026-05-06 02:51 38.73888 -104.23343 29442 ft 430 kts 177°
2026-05-06 02:52 38.70032 -104.22122 29798 ft 432 kts 177°
2026-05-06 02:52 38.67114 -104.21200 30058 ft 433 kts 178°
2026-05-06 02:52 38.64178 -104.20275 30305 ft 434 kts 178°
2026-05-06 02:52 38.61240 -104.19348 30570 ft 435 kts 178°
2026-05-06 02:53 38.59256 -104.18723 30748 ft 435 kts 178°
2026-05-06 02:53 38.55359 -104.17499 31085 ft 436 kts 178°
2026-05-06 02:53 38.53370 -104.16796 31255 ft 444 kts 173°
2026-05-06 02:53 38.50514 -104.15260 31500 ft 460 kts 164°
2026-05-06 02:54 38.47756 -104.13029 31697 ft 478 kts 153°
2026-05-06 02:54 38.45147 -104.10241 31915 ft 486 kts 150°
2026-05-06 02:54 38.42572 -104.07442 32156 ft 486 kts 151°
2026-05-06 02:54 38.40020 -104.04684 32404 ft 487 kts 151°
2026-05-06 02:55 38.37426 -104.01890 32653 ft 488 kts 151°
2026-05-06 02:55 38.34822 -103.99097 32900 ft 489 kts 151°
2026-05-06 02:55 38.32220 -103.96312 33157 ft 490 kts 151°
2026-05-06 02:55 38.29602 -103.93517 33400 ft 491 kts 152°
2026-05-06 02:56 38.26987 -103.90724 33632 ft 491 kts 152°
2026-05-06 02:56 38.24370 -103.87927 33897 ft 492 kts 152°
2026-05-06 02:56 38.21754 -103.85131 34155 ft 492 kts 152°
2026-05-06 02:56 38.19128 -103.82325 34342 ft 494 kts 152°
2026-05-06 02:57 38.16496 -103.79512 34569 ft 494 kts 152°
2026-05-06 02:57 38.13858 -103.76691 34825 ft 494 kts 152°
2026-05-06 02:57 38.11231 -103.73881 35081 ft 494 kts 152°
2026-05-06 02:57 38.08601 -103.71074 35343 ft 493 kts 152°
2026-05-06 02:58 38.05928 -103.68418 35574 ft 480 kts 159°
2026-05-06 02:58 38.03102 -103.66264 35820 ft 471 kts 163°
2026-05-06 02:58 38.00261 -103.64189 36052 ft 470 kts 163°
2026-05-06 02:58 37.97421 -103.62122 36273 ft 470 kts 163°
2026-05-06 02:59 37.94592 -103.60063 36356 ft 469 kts 163°
2026-05-06 02:59 37.91765 -103.58000 36569 ft 468 kts 163°
2026-05-06 02:59 37.88944 -103.55941 36779 ft 468 kts 163°
2026-05-06 03:00 37.83315 -103.51827 36866 ft 465 kts 163°
2026-05-06 03:00 37.77744 -103.47768 36874 ft 466 kts 163°
2026-05-06 03:01 37.72108 -103.43685 36872 ft 467 kts 163°
2026-05-06 03:01 37.66459 -103.39587 36877 ft 467 kts 163°
2026-05-06 03:02 37.60817 -103.35498 36877 ft 467 kts 163°
2026-05-06 03:02 37.55172 -103.31419 36890 ft 468 kts 163°
2026-05-06 03:03 37.49556 -103.27367 36893 ft 468 kts 163°
2026-05-06 03:03 37.43873 -103.23278 36857 ft 467 kts 163°
2026-05-06 03:04 37.38261 -103.19251 36873 ft 467 kts 163°
2026-05-06 03:04 37.32696 -103.15260 36890 ft 467 kts 163°
2026-05-06 03:05 37.27056 -103.11215 36895 ft 467 kts 164°
2026-05-06 03:05 37.21409 -103.07187 36851 ft 467 kts 163°
2026-05-06 03:06 37.15762 -103.03159 36848 ft 467 kts 163°
2026-05-06 03:06 37.10115 -102.99131 36879 ft 467 kts 163°
2026-05-06 03:07 37.04460 -102.95103 36883 ft 467 kts 163°
2026-05-06 03:07 36.98811 -102.91084 36844 ft 467 kts 163°
2026-05-06 03:08 36.93161 -102.87078 36859 ft 467 kts 163°
2026-05-06 03:08 36.87512 -102.83081 36865 ft 466 kts 164°
2026-05-06 03:09 36.81866 -102.79090 36875 ft 466 kts 163°
2026-05-06 03:09 36.76213 -102.75101 36843 ft 467 kts 163°
2026-05-06 03:10 36.70549 -102.71120 36853 ft 468 kts 163°
2026-05-06 03:10 36.64871 -102.67136 36859 ft 468 kts 163°
2026-05-06 03:11 36.59199 -102.63154 36864 ft 468 kts 163°
2026-05-06 03:11 36.53521 -102.59180 36837 ft 468 kts 164°
2026-05-06 03:12 36.47889 -102.55246 36853 ft 468 kts 164°
2026-05-06 03:12 36.42216 -102.51283 36864 ft 468 kts 163°
2026-05-06 03:13 36.36540 -102.47315 36869 ft 468 kts 164°
2026-05-06 03:13 36.30865 -102.43366 36857 ft 468 kts 164°
2026-05-06 03:14 36.25189 -102.39431 36877 ft 468 kts 164°
2026-05-06 03:14 36.19502 -102.35494 36898 ft 468 kts 164°
2026-05-06 03:15 36.13810 -102.31554 36898 ft 469 kts 164°
2026-05-06 03:15 36.08118 -102.27618 36870 ft 469 kts 165°
2026-05-06 03:16 36.02420 -102.23690 36873 ft 470 kts 164°
2026-05-06 03:16 35.96709 -102.19758 36867 ft 470 kts 165°
2026-05-06 03:17 35.90999 -102.15832 36848 ft 470 kts 164°
2026-05-06 03:17 35.85281 -102.11899 36909 ft 471 kts 165°
2026-05-06 03:18 35.79550 -102.07974 36922 ft 472 kts 165°
2026-05-06 03:18 35.73807 -102.04051 36918 ft 472 kts 165°
2026-05-06 03:19 35.68057 -102.00121 36897 ft 473 kts 165°
2026-05-06 03:19 35.62286 -101.96189 36830 ft 475 kts 165°
2026-05-06 03:20 35.53567 -101.90262 36848 ft 478 kts 165°
2026-05-06 03:20 35.47906 -101.86402 36860 ft 478 kts 165°
2026-05-06 03:21 35.42086 -101.82441 36870 ft 478 kts 165°
2026-05-06 03:21 35.36268 -101.78512 36885 ft 477 kts 165°
2026-05-06 03:22 35.30444 -101.74583 36903 ft 478 kts 165°
2026-05-06 03:22 35.24622 -101.70656 36905 ft 477 kts 165°
2026-05-06 03:23 35.18811 -101.66709 36857 ft 479 kts 164°
2026-05-06 03:23 35.13013 -101.62687 36787 ft 480 kts 164°
2026-05-06 03:24 35.07207 -101.58646 36782 ft 480 kts 164°
2026-05-06 03:24 35.01391 -101.54631 36791 ft 480 kts 164°
2026-05-06 03:25 34.95560 -101.50630 36796 ft 480 kts 164°
2026-05-06 03:25 34.89736 -101.46640 36786 ft 480 kts 164°
2026-05-06 03:26 34.83927 -101.42667 36793 ft 481 kts 164°
2026-05-06 03:26 34.78097 -101.38683 36792 ft 481 kts 164°
2026-05-06 03:27 34.72262 -101.34682 36797 ft 481 kts 164°
2026-05-06 03:27 34.66433 -101.30702 36758 ft 480 kts 164°
2026-05-06 03:28 34.60592 -101.26738 36764 ft 481 kts 164°
2026-05-06 03:28 34.54744 -101.22769 36764 ft 482 kts 164°
2026-05-06 03:29 34.48890 -101.18792 36778 ft 482 kts 164°
2026-05-06 03:29 34.43034 -101.14831 36763 ft 482 kts 164°
2026-05-06 03:30 34.37171 -101.10869 36775 ft 482 kts 164°
2026-05-06 03:30 34.31315 -101.06912 36776 ft 482 kts 164°
2026-05-06 03:31 34.25450 -101.02965 36783 ft 482 kts 164°
2026-05-06 03:31 34.19582 -100.99019 36749 ft 482 kts 164°
2026-05-06 03:32 34.13734 -100.95082 36769 ft 481 kts 164°
2026-05-06 03:32 34.07881 -100.91153 36775 ft 481 kts 164°
2026-05-06 03:33 34.02037 -100.87236 36767 ft 480 kts 164°
2026-05-06 03:33 33.96190 -100.83332 36751 ft 479 kts 164°
2026-05-06 03:34 33.90402 -100.79473 36762 ft 478 kts 164°
2026-05-06 03:34 33.84583 -100.75598 36772 ft 477 kts 164°
2026-05-06 03:35 33.78779 -100.71731 36763 ft 477 kts 164°
2026-05-06 03:35 33.72976 -100.67872 36737 ft 476 kts 164°
2026-05-06 03:36 33.67179 -100.64026 36750 ft 475 kts 164°
2026-05-06 03:36 33.61391 -100.60188 36756 ft 475 kts 164°
2026-05-06 03:37 33.55609 -100.56365 36747 ft 475 kts 164°
2026-05-06 03:37 33.49829 -100.52550 36708 ft 475 kts 164°
2026-05-06 03:38 33.44037 -100.48734 36737 ft 475 kts 164°
2026-05-06 03:38 33.39225 -100.45568 36748 ft 475 kts 164°
2026-05-06 03:39 33.33437 -100.41766 36756 ft 475 kts 164°
2026-05-06 03:39 33.27647 -100.37968 36761 ft 474 kts 164°
2026-05-06 03:40 33.21860 -100.34170 36746 ft 474 kts 164°
2026-05-06 03:40 33.16075 -100.30385 36762 ft 474 kts 164°
2026-05-06 03:41 33.10291 -100.26615 36767 ft 473 kts 164°
2026-05-06 03:41 33.04514 -100.22847 36773 ft 473 kts 164°
2026-05-06 03:42 32.98736 -100.19072 36772 ft 474 kts 164°
2026-05-06 03:42 32.92990 -100.15335 36768 ft 474 kts 164°
2026-05-06 03:43 32.87200 -100.11582 36761 ft 474 kts 164°
2026-05-06 03:43 32.81399 -100.07825 36770 ft 474 kts 164°
2026-05-06 03:44 32.75598 -100.04067 36773 ft 475 kts 164°
2026-05-06 03:44 32.69804 -100.00318 36758 ft 474 kts 164°
2026-05-06 03:45 32.64001 -99.96570 36770 ft 474 kts 164°
2026-05-06 03:45 32.58205 -99.92835 36780 ft 474 kts 164°
2026-05-06 03:46 32.52411 -99.89102 36784 ft 474 kts 164°
2026-05-06 03:46 32.46613 -99.85373 36755 ft 474 kts 163°
2026-05-06 03:47 32.40864 -99.81630 36761 ft 475 kts 163°
2026-05-06 03:47 32.35067 -99.77843 36765 ft 476 kts 163°
2026-05-06 03:48 32.29265 -99.74074 36778 ft 476 kts 163°
2026-05-06 03:48 32.23452 -99.70311 36765 ft 476 kts 163°
2026-05-06 03:49 32.17639 -99.66540 36774 ft 477 kts 163°
2026-05-06 03:49 32.11822 -99.62768 36793 ft 478 kts 163°
2026-05-06 03:50 32.05986 -99.58995 36813 ft 478 kts 163°
2026-05-06 03:50 32.00158 -99.55238 36831 ft 478 kts 163°
2026-05-06 03:51 31.94354 -99.51510 36831 ft 477 kts 163°
2026-05-06 03:51 31.88521 -99.47761 36848 ft 477 kts 163°
2026-05-06 03:52 31.82697 -99.44019 36838 ft 477 kts 163°
2026-05-06 03:52 31.76860 -99.40275 36841 ft 478 kts 163°
2026-05-06 03:53 31.71022 -99.36538 36784 ft 478 kts 162°
2026-05-06 03:53 31.65181 -99.32802 36796 ft 478 kts 162°
2026-05-06 03:54 31.59338 -99.29073 36800 ft 478 kts 162°
2026-05-06 03:54 31.53532 -99.25379 36782 ft 478 kts 162°
2026-05-06 03:55 31.50596 -99.23512 35930 ft 481 kts 162°
2026-05-06 03:55 31.47647 -99.21640 34754 ft 484 kts 162°
2026-05-06 03:55 31.44675 -99.19756 33659 ft 484 kts 162°
2026-05-06 03:55 31.41774 -99.17897 33225 ft 467 kts 162°
2026-05-06 03:56 31.38964 -99.16085 32645 ft 456 kts 162°
2026-05-06 03:56 31.36187 -99.14309 32092 ft 454 kts 162°
2026-05-06 03:56 31.33415 -99.12554 31536 ft 453 kts 162°
2026-05-06 03:56 31.30643 -99.10810 30976 ft 452 kts 162°
2026-05-06 03:57 31.27874 -99.09069 30427 ft 451 kts 162°
2026-05-06 03:57 31.25111 -99.07331 29871 ft 451 kts 162°
2026-05-06 03:57 31.22349 -99.05590 29265 ft 450 kts 162°
2026-05-06 03:57 31.19608 -99.03854 28722 ft 446 kts 161°
2026-05-06 03:58 31.16892 -99.02131 28226 ft 442 kts 161°
2026-05-06 03:58 31.14194 -99.00423 27695 ft 439 kts 161°
2026-05-06 03:58 31.11556 -98.98757 27223 ft 435 kts 161°
2026-05-06 03:58 31.08902 -98.97084 26723 ft 432 kts 161°
2026-05-06 03:59 31.06262 -98.95421 26248 ft 429 kts 161°
2026-05-06 03:59 31.03647 -98.93774 25768 ft 425 kts 161°
2026-05-06 03:59 31.01049 -98.92141 25278 ft 423 kts 161°
2026-05-06 03:59 30.98464 -98.90521 24791 ft 421 kts 161°
2026-05-06 04:00 30.95895 -98.88910 24284 ft 419 kts 161°
2026-05-06 04:00 30.93328 -98.87302 23779 ft 418 kts 161°
2026-05-06 04:00 30.90774 -98.85701 23253 ft 417 kts 161°
2026-05-06 04:00 30.88228 -98.84106 22704 ft 414 kts 160°
2026-05-06 04:01 30.85698 -98.82518 22195 ft 412 kts 160°
2026-05-06 04:01 30.83224 -98.80834 21667 ft 417 kts 151°
2026-05-06 04:01 30.81105 -98.78462 21158 ft 429 kts 133°
2026-05-06 04:01 30.79639 -98.75416 20810 ft 434 kts 113°
2026-05-06 04:02 30.78959 -98.72035 20630 ft 427 kts 99°
2026-05-06 04:02 30.78589 -98.68626 20282 ft 423 kts 98°
2026-05-06 04:02 30.78232 -98.65264 19744 ft 416 kts 98°
2026-05-06 04:02 30.77887 -98.61949 19083 ft 410 kts 98°
2026-05-06 04:03 30.77663 -98.59778 18655 ft 406 kts 98°
2026-05-06 04:03 30.77215 -98.55462 17775 ft 398 kts 98°
2026-05-06 04:03 30.76888 -98.52339 17161 ft 390 kts 98°
2026-05-06 04:03 30.76564 -98.49236 16658 ft 381 kts 98°
2026-05-06 04:04 30.76249 -98.46225 16201 ft 371 kts 98°
2026-05-06 04:04 30.75775 -98.43326 15775 ft 359 kts 109°
2026-05-06 04:04 30.74919 -98.40660 15391 ft 346 kts 118°
2026-05-06 04:04 30.73918 -98.38143 15018 ft 342 kts 118°
2026-05-06 04:05 30.72930 -98.35644 14640 ft 340 kts 118°
2026-05-06 04:05 30.71943 -98.33140 14264 ft 342 kts 117°
2026-05-06 04:05 30.70950 -98.30622 13877 ft 344 kts 117°
2026-05-06 04:05 30.69953 -98.28090 13470 ft 345 kts 117°
2026-05-06 04:06 30.68954 -98.25550 13057 ft 345 kts 117°
2026-05-06 04:06 30.67956 -98.23014 12664 ft 344 kts 117°
2026-05-06 04:06 30.66958 -98.20486 12262 ft 344 kts 117°
2026-05-06 04:06 30.65960 -98.17962 11856 ft 344 kts 117°
2026-05-06 04:07 30.64961 -98.15439 11433 ft 344 kts 117°
2026-05-06 04:07 30.63959 -98.12921 11121 ft 340 kts 117°
2026-05-06 04:07 30.62981 -98.10466 10963 ft 329 kts 117°
2026-05-06 04:07 30.62033 -98.08080 10471 ft 324 kts 117°
2026-05-06 04:08 30.61094 -98.05718 9923 ft 320 kts 117°
2026-05-06 04:08 30.60171 -98.03399 9391 ft 313 kts 117°
2026-05-06 04:08 30.59281 -98.01158 8947 ft 304 kts 117°
2026-05-06 04:08 30.58402 -97.98950 8535 ft 301 kts 117°
2026-05-06 04:09 30.57521 -97.96744 8122 ft 302 kts 116°
2026-05-06 04:09 30.56637 -97.94529 7698 ft 303 kts 118°
2026-05-06 04:09 30.55539 -97.92464 7254 ft 300 kts 133°
2026-05-06 04:09 30.54190 -97.90616 6813 ft 300 kts 134°
2026-05-06 04:10 30.52834 -97.88771 6432 ft 299 kts 134°
2026-05-06 04:10 30.51487 -97.86941 5992 ft 300 kts 134°
2026-05-06 04:10 30.50151 -97.85127 5751 ft 291 kts 135°
2026-05-06 04:10 30.48851 -97.83352 5209 ft 286 kts 135°
2026-05-06 04:11 30.47580 -97.81616 5055 ft 283 kts 135°
2026-05-06 04:11 30.46312 -97.79889 5034 ft 277 kts 136°
2026-05-06 04:11 30.45116 -97.78249 5030 ft 255 kts 136°
2026-05-06 04:11 30.44003 -97.76725 4994 ft 242 kts 137°
2026-05-06 04:12 30.42878 -97.75302 4909 ft 236 kts 146°
2026-05-06 04:12 30.41539 -97.74281 4677 ft 229 kts 155°
2026-05-06 04:12 30.40162 -97.73333 4236 ft 235 kts 155°
2026-05-06 04:12 30.38779 -97.72369 4011 ft 226 kts 154°
2026-05-06 04:13 30.37467 -97.71446 3788 ft 222 kts 154°
2026-05-06 04:13 30.36158 -97.70528 3508 ft 218 kts 152°
2026-05-06 04:13 30.34859 -97.69625 3157 ft 218 kts 155°
2026-05-06 04:13 30.33561 -97.68725 2676 ft 216 kts 157°
2026-05-06 04:14 30.32225 -97.68232 2534 ft 189 kts 180°
2026-05-06 04:14 30.30980 -97.68183 2385 ft 170 kts 182°
2026-05-06 04:14 30.29863 -97.68155 2213 ft 150 kts 182°
2026-05-06 04:14 30.28866 -97.68130 2004 ft 137 kts 184°
2026-05-06 04:15 30.28004 -97.68109 1834 ft 130 kts 184°
2026-05-06 04:15 30.27090 -97.68087 1674 ft 130 kts 183°
2026-05-06 04:15 30.26186 -97.68063 1520 ft 129 kts 181°
2026-05-06 04:15 30.25288 -97.68039 1350 ft 128 kts 183°
2026-05-06 04:16 30.24356 -97.68007 1166 ft 135 kts 181°
2026-05-06 04:16 30.23754 -97.67981 1037 ft 130 kts 182°
2026-05-06 04:16 30.22569 -97.67970 800 ft 130 kts 181°
2026-05-06 04:16 30.21655 -97.67941 639 ft 132 kts 181°
2026-05-06 04:17 30.20757 -97.67913 536 ft 123 kts 180°
2026-05-06 04:17 30.20086 -97.67902 526 ft 59 kts 179°
2026-05-06 04:17 30.19790 -97.67897 527 ft 45 kts 179°
2026-05-06 04:17 30.19470 -97.67849 528 ft 42 kts 152°
2026-05-06 04:18 30.19396 -97.67621 527 ft 31 kts 91°
2026-05-06 04:18 30.19402 -97.67380 527 ft 26 kts 81°
2026-05-06 04:18 30.19486 -97.67324 527 ft 13 kts
2026-05-06 04:18 30.19572 -97.67324 527 ft 12 kts 359°
2026-05-06 04:19 30.19666 -97.67327 527 ft 19 kts 359°
2026-05-06 04:19 30.19829 -97.67332 527 ft 26 kts 359°
2026-05-06 04:19 30.19998 -97.67331 527 ft 19 kts 19°
2026-05-06 04:19 30.20048 -97.67264 527 ft 15 kts 37°
2026-05-06 04:20 30.20151 -97.67249 527 ft 10 kts 353°
2026-05-06 04:20 30.20200 -97.67236 527 ft 6 kts 59°
2026-05-06 04:20 30.20204 -97.67205 527 ft 2 kts 89°
2026-05-06 04:20 30.20202 -97.67192 527 ft 5 kts 96°
2026-05-06 04:21 30.20201 -97.67181 527 ft 4 kts 102°
2026-05-06 04:21 30.20197 -97.67163 527 ft 0 kts 105°
2026-05-06 04:21 30.20195 -97.67157 527 ft 0 kts 105°
2026-05-06 04:21 30.20194 -97.67151 527 ft 0 kts 105°
2026-05-06 04:22 30.20194 -97.67149 527 ft 0 kts 104°